User: anonymous   Login
Location: Drayton Valley
(53.2170°N, 114.9830°W)
Time: 16:02:53
(UTC-07:00)
Language:

Cosmos 1302 Rocket - Orbit

View from above orbital plane
View from above orbital plane
View from above satellite
View from above satellite

Ground track
Ground track

The orbit data is extracted from the following two-line orbital elements,

1 12792U 81084B   18051.84330773 +.00000015 +00000-0 +13706-4 0  9999
2 12792 074.0301 297.6511 0013530 167.4419 192.7074 14.37502851910515
Epoch (UTC): 20 February 2018 20:14:21
Eccentricity: 0.0013530
inclination: 74.0301°
perigee height: 757 km
apogee height: 776 km
right ascension of ascending node: 297.6511°
argument of perigee: 167.4419°
revolutions per day: 14.37502851
mean anomaly at epoch: 192.7074°
orbit number at epoch: 91051

The dashed part of the orbit path shows where the satellite is in the earth's shadow,  

DLR